This demonstration page uses our WeatherBlox Daily Observations layout. Learn more.

Left ArrowRight Arrow

39.51506, -84.39828

Hourly Observations for June 6, 2020

Temp ( °F °C ) Dew Point ( °F °C ) Humidity (%) Winds ( mph kmh ) Pressure ( in mb ) Visibility ( mi km ) Precip ( " mm )
12:15 am 00:15 Clear 69 20.3 67 19.6 96 96 Calm 29.93 1014 10 16.0934 0 0
12:35 am 00:35 Clear 69 20.7 68 19.9 95 95 Calm 29.93 1014 10 16.0934 0 0
12:55 am 00:55 Clear 70 21.3 68 19.9 92 92 Calm 29.93 1014 10 16.0934 0 0
1:15 am 01:15 Clear 70 21.2 67 19.7 91 91 Calm 29.93 1014 10 16.0934 0 0
1:35 am 01:35 Clear 70 21 68 19.9 93 93 Calm 29.93 1014 10 16.0934 0 0
1:55 am 01:55 Clear 69 20.3 68 20 98 98 Calm 29.93 1014 10 16.0934 0 0
2:15 am 02:15 Clear 68 20 68 19.9 99 99 Calm 29.93 1014 10 16.0934 0 0
2:35 am 02:35 Clear 67 19.6 67 19.5 99 99 Calm 29.94 1014 7 11.26538 0 0
2:55 am 02:55 Clear with Mist and Fog 67 19.5 67 19.4 99 99 Calm 29.94 1014 4 6.43736 0 0
3:15 am 03:15 Clear 66 19.1 66 19 99 99 Calm 29.94 1014 10 16.0934 0 0
3:35 am 03:35 Clear 67 19.2 66 19 99 99 Calm 29.94 1014 10 16.0934 0 0
3:55 am 03:55 Clear 65 18.4 65 18.3 99 99 Calm 29.94 1014 7 11.26538 0 0
4:15 am 04:15 Clear 65 18.6 65 18.6 100 100 Calm 29.94 1014 7 11.26538 0 0
4:35 am 04:35 Clear with Mist and Fog 66 19 66 19 100 100 Calm 29.94 1014 7 11.26538 0 0
4:55 am 04:55 Hazy 66 19 N/A N/A Calm 29.94 1014 7 11.26538 0 0
5:15 am 05:15 Hazy 66 19 N/A N/A Calm 29.94 1014 7 11.26538 0 0
5:35 am 05:35 Hazy 64 18 N/A N/A Calm 29.94 1014 5 8.0467 0 0
5:55 am 05:55 Hazy 64 18 N/A N/A Calm 29.95 1014 4 6.43736 0 0
6:15 am 06:15 Sunny with Mist and Fog 64 18 N/A N/A Calm 29.95 1014 2.5 4.02335 0 0
6:35 am 06:35 Sunny with Mist and Fog 64 18 N/A N/A Calm 29.96 1015 3 4.82802 0 0
6:55 am 06:55 Hazy 64 18 N/A N/A Calm 29.97 1015 4 6.43736 0 0
7:15 am 07:15 Hazy 66 19 N/A N/A Calm 29.97 1015 4 6.43736 0 0
7:35 am 07:35 Sunny with Mist and Fog 69 20.3 68 20.2 99 99 Calm 29.96 1015 7 11.26538 0 0
7:55 am 07:55 Sunny 71 21.8 69 20.4 92 92 Calm 29.96 1015 10 16.0934 0 0
8:15 am 08:15 Sunny 73 22.7 69 20.8 89 89 Calm 29.97 1015 10 16.0934 0 0
8:35 am 08:35 Sunny 74 23.6 70 20.9 85 85 Calm 29.97 1015 10 16.0934 0 0
8:55 am 08:55 Sunny 76 24.5 70 21.3 82 82 Calm 29.96 1015 10 16.0934 0 0
9:15 am 09:15 Sunny 78 25.3 70 21.3 79 79 Calm 29.96 1015 10 16.0934 0 0
9:35 am 09:35 Sunny 79 26 71 21.9 78 78 ENE 5 7 29.96 1015 10 16.0934 0 0
9:55 am 09:55 Sunny 79 26.1 71 21.5 76 76 ENE 3 6 29.97 1015 10 16.0934 0 0
10:15 am 10:15 Sunny 80 26.8 71 21.6 73 73 ENE 3 6 29.97 1015 10 16.0934 0 0
10:35 am 10:35 Sunny 81 27 71 21.6 72 72 Calm 29.96 1015 10 16.0934 0 0
10:55 am 10:55 Sunny 82 27.7 71 21.8 70 70 Calm 29.97 1015 10 16.0934 0 0
11:15 am 11:15 Sunny 83 28.4 73 22.6 71 71 Calm 29.97 1015 10 16.0934 0 0
11:35 am 11:35 Sunny 83 28.6 73 22.6 70 70 Calm 29.97 1015 10 16.0934 0 0
11:55 am 11:55 Mostly Cloudy 83 28.3 73 22.6 71 71 NW 7 11 29.98 1015 10 16.0934 0 0
12:15 pm 12:15 Partly Cloudy 85 29.5 71 21.6 63 63 NNW 8 13 29.97 1015 10 16.0934 0 0
12:35 pm 12:35 Mostly Cloudy 85 29.6 71 21.5 62 62 N 3 6 29.97 1015 10 16.0934 0 0
12:55 pm 12:55 Partly Cloudy 85 29.5 70 21.3 61 61 N 7 11 29.96 1015 10 16.0934 0 0
1:15 pm 13:15 Sunny 86 30.2 69 20.5 56 56 NNW 6 9 29.96 1015 10 16.0934 0 0
1:35 pm 13:35 Partly Cloudy 87 30.5 68 19.9 53 53 NW 9 15 29.95 1014 10 16.0934 0 0
1:55 pm 13:55 Sunny 87 30.7 69 20.7 55 55 N 6 9 29.95 1014 10 16.0934 0 0
2:15 pm 14:15 Partly Cloudy 88 30.9 68 20.2 53 53 N 5 7 29.94 1014 10 16.0934 0 0
2:35 pm 14:35 Partly Cloudy 87 30.7 66 18.8 49 49 NNE 6 9 29.94 1014 10 16.0934 0 0
2:55 pm 14:55 Partly Cloudy 87 30.8 64 17.8 46 46 NE 6 9 29.94 1014 10 16.0934 0 0
3:15 pm 15:15 Partly Cloudy 88 31 65 18.4 47 47 NW 5 7 29.93 1014 10 16.0934 0 0
3:35 pm 15:35 Sunny 87 30.8 63 17.4 45 45 WNW 7 11 29.93 1014 10 16.0934 0 0
3:55 pm 15:55 Sunny 87 30.4 64 17.5 46 46 NNW 7 11 29.93 1014 10 16.0934 0 0
4:15 pm 16:15 Sunny 88 31.2 64 17.5 44 44 NW 5 7 29.92 1013 10 16.0934 0 0
4:35 pm 16:35 Sunny 88 31.3 64 17.5 44 44 NW 8 13 29.92 1013 10 16.0934 0 0
4:55 pm 16:55 Sunny 88 31.3 63 17.2 43 43 NW 9 15 29.91 1013 10 16.0934 0 0
5:15 pm 17:15 Partly Cloudy 89 31.4 60 15.3 38 38 N 10 17 29.91 1013 10 16.0934 0 0
5:35 pm 17:35 Sunny 88 31 61 15.9 40 40 NW 5 7 29.91 1013 10 16.0934 0 0
5:55 pm 17:55 Sunny 88 31 60 15.7 40 40 NW 9 15 29.91 1013 10 16.0934 0 0
6:15 pm 18:15 Sunny 87 30.8 60 15.7 40 40 NW 7 11 29.9 1013 7 11.26538 0 0
6:35 pm 18:35 Sunny 87 30.5 60 15.5 40 40 NW 9 15 29.9 1013 10 16.0934 0 0
6:55 pm 18:55 Sunny 87 30.6 59 15.1 39 39 NW 8 13 29.89 1012 10 16.0934 0 0
7:15 pm 19:15 Sunny 86 30.2 61 16.1 43 43 NW 7 11 29.89 1012 10 16.0934 0 0
7:35 pm 19:35 Sunny 85 29.7 62 16.4 45 45 WNW 7 11 29.9 1013 10 16.0934 0 0
7:55 pm 19:55 Sunny 84 29 62 16.9 48 48 NNW 5 7 29.9 1013 10 16.0934 0 0
8:15 pm 20:15 Sunny 83 28.2 60 15.3 45 45 NNW 5 7 29.91 1013 10 16.0934 0 0
8:35 pm 20:35 Sunny 81 27.3 59 15 47 47 NNW 3 6 29.91 1013 10 16.0934 0 0
8:55 pm 20:55 Sunny 79 26.2 58 14.7 49 49 N 5 7 29.92 1013 10 16.0934 0 0
9:15 pm 21:15 Clear 77 25.1 58 14.3 51 51 N 5 7 29.92 1013 10 16.0934 0 0
9:35 pm 21:35 Clear 76 24.7 57 13.7 50 50 N 5 7 29.94 1014 10 16.0934 0 0
9:55 pm 21:55 Clear 75 24.1 55 12.8 49 49 N 3 6 29.95 1014 10 16.0934 0 0
10:15 pm 22:15 Clear 72 22.3 57 13.7 58 58 N 5 7 29.96 1015 10 16.0934 0 0
10:35 pm 22:35 Clear 72 22 56 13.1 57 57 N 5 7 29.97 1015 10 16.0934 0 0
10:55 pm 22:55 Clear 72 22.1 53 11.8 52 52 N 6 9 29.98 1015 10 16.0934 0 0
11:15 pm 23:15 Clear 71 21.9 52 11.3 51 51 N 6 9 29.98 1015 10 16.0934 0 0
11:35 pm 23:35 Clear 71 21.8 50 10.2 48 48 N 8 13 29.98 1015 10 16.0934 0 0
11:55 pm 23:55 Clear 71 21.7 49 9.5 46 46 N 6 9 29.99 1016 10 16.0934 0 0

Powered by AerisWeather